Regional Weather Roundup
Issued by NWS Cleveland, OH

Home | Current Version | Previous Version | Text Only | Print | Product List | Glossary Off
Versions: 1 2 3 4 5 6 7 8 9 10 11 12 13 14 15 16 17 18 19 20 21 22 23 24 25 26 27 28 29 30 31 32 33 34 35 36 37 38 39 40 41 42 43 44 45 46 47 48 49 50

000
ASUS41 KCLE 070200
RWRCLE
OHIO REGIONAL WEATHER ROUNDUP
NATIONAL WEATHER SERVICE WILMINGTON, OH
900 PM EST SAT FEB 06 2016

NOTE: "FAIR" INDICATES FEW OR NO CLOUDS BELOW 12,000 FEET WITH NO
SIGNIFICANT WEATHER AND/OR OBSTRUCTIONS TO VISIBILITY.

OHZ001>008-015>018-024>027-034-035-043-044-070300-
   NORTHWEST OHIO

CITY           SKY/WX    TMP DP  RH WIND       PRES   REMARKS
DEFIANCE       FAIR      32  25  75 S3        30.20S
FINDLAY        FAIR      30  22  72 S5        30.20S WCI  25
TOLEDO EXPRESS FAIR      31  22  69 SW6       30.19S WCI  25
TOLEDO EXEC    FAIR      30  22  72 SW6       30.21S WCI  24
LIMA           FAIR      33  24  69 S6        30.20F WCI  28
$$

OHZ009>014-019>023-028>033-038-089-070300-
   NORTHEAST OHIO

CITY           SKY/WX    TMP DP  RH WIND       PRES   REMARKS
CLE-HOPKINS    FAIR      32  19  58 SW6       30.23S WCI  26
CLE-LAKEFRONT  FAIR      35  21  56 SW14      30.20S WCI  26
CUY CO. ARPT   PTCLDY    32  23  69 SW7       30.20F WCI  26
LORAIN-ELYRIA  FAIR      29  21  72 SW6       30.21S WCI  23
ASHTABULA      FAIR      28  24  85 CALM      30.20S
AKRON-CANTON   FAIR      29  16  58 SW6       30.20S WCI  23
WOOSTER        NOT AVBL
MANSFIELD      FAIR      28  18  66 S8        30.19F WCI  20
YOUNGSTOWN     FAIR      32  17  54 S7        30.19S WCI  26
$$

OHZ042-051>053-060>062-070>072-077>081-070300-
  SOUTHWEST OHIO

CITY           SKY/WX    TMP DP  RH WIND       PRES   REMARKS
CINC-COVINGTON FAIR      33  26  75 S3        30.24S
CINC-LUNKEN    FAIR      32  26  78 CALM      30.27S
HAMILTON       FAIR      29  24  82 CALM      30.25F
DAYTON         NOT AVBL
WRIGHT-PAT AFB FAIR      31  21  64 CALM      30.23S
DAYTON GENERAL FAIR      34  21  59 S3        30.22F
WILMINGTON     FAIR      31  23  72 S3        30.23S
$$

OHZ036-037-039>041-045>050-054>059-063>069-073>076-082>088-070300-
  CENTRAL AND SOUTHEAST OHIO

CITY           SKY/WX    TMP DP  RH WIND       PRES   REMARKS
COLUMBUS       FAIR      32  17  54 S3        30.23F
OSU AIRPORT    FAIR      35  19  52 S5        30.22F
BOLTON FIELD   NOT AVBL
RICKENBACK AFB NOT AVBL
NEWARK         FAIR      28  19  69 CALM      30.23S
MARION         FAIR      28  18  66 S6        30.22S WCI  22
LANCASTER      FAIR      28  23  81 CALM      30.24S
ZANESVILLE     FAIR      32  15  49 CALM      30.24S
NEW PHILLY     FAIR      28  19  69 CALM      30.24S
$$



USA.gov is the U.S. government's official web portal to all federal, state and local government web resources and services.